Regional Weather Roundup
Issued by NWS

Home | Current Version | Previous Version | Text Only | Print | Product List | Glossary Off
Versions: 1 2 3 4 5 6 7 8 9 10 11 12 13 14 15 16 17 18 19 20 21 22 23 24 25 26 27 28 29 30 31 32 33 34 35 36 37 38 39 40 41 42 43 44 45 46 47 48 49 50

172
ASUS44 KMEG 010210
RWRTN
TENNESSEE HOURLY STATE WEATHER ROUNDUP
NATIONAL WEATHER SERVICE MEMPHIS TN
900 PM CDT SAT APR 30 2016

TNZ002-004-019-021-049-052-054-088>092-010300-
WEST TENNESSEE

CITY           SKY/WX    TMP DP  RH WIND       PRES   REMARKS
MEMPHIS INTL   PTCLDY    72  63  73 SE5       29.83R
NWS MEMPHIS      N/A     67 N/A N/A MISG        N/A
JACKSON        PTCLDY    68  63  84 CALM      29.86R
DYERSBURG      CLEAR     68  61  77 SE5         N/A
UNION CITY     CLEAR     66  64  94 SE8       29.83S
LEXINGTON      MOCLDY    64  64 100 CALM      29.86R
$$

TNZ008-025-027-028-033-062-065-066-010300-
NORTH MIDDLE TENNESSEE

CITY           SKY/WX    TMP DP  RH WIND       PRES   REMARKS
NASHVILLE      CLOUDY    68  65  90 S5        29.89R
CLARKSVILLE    CLOUDY    66  64  93 SE5       29.87F
SMYRNA         CLOUDY    68  67  96 S3        29.90S
COOKEVILLE     PTCLDY    68  66  94 S3        29.93R
CROSSVILLE     CLOUDY    65  60  84 E5        29.98R
$$

TNZ061-075-076-078-094-096-097-010300-
SOUTH MIDDLE TENNESSEE

CITY           SKY/WX    TMP DP  RH WIND       PRES   REMARKS
FAYETTEVILLE   MOCLDY    66  66 100 NE5       29.89S
TULLAHOMA      CLEAR     66  66 100 E3        29.92R
WINCHESTER     CLEAR     66  64  94 CALM      29.91S
MCMINNVILLE    CLEAR     66  66 100 CALM      29.92S
COLUMBIA       CLOUDY   N/A N/A N/A CALM      29.87R
SHELBYVILLE    CLEAR     66  66 100 CALM      29.91R
$$

TNZ017-018-042-046-047-010300-
NORTHEAST TENNESSEE

CITY           SKY/WX    TMP DP  RH WIND       PRES   REMARKS
TRI CITIES     LGT RAIN  62  59  90 CALM      30.03R
$$

TNZ012-013-036-069-073-074-010300-
CENTRAL EAST TENNESSEE

CITY           SKY/WX    TMP DP  RH WIND       PRES   REMARKS
KNOXVILLE      LGT RAIN  64  62  93 NE9       29.98S
OAK RIDGE      RAIN      64  62  93 VRB5      29.99F FOG
GATLINBURG     MOCLDY    63  61  94 CALM      30.00R
MORRISTOWN     CLOUDY    63  63 100 SE6       30.01S
$$

TNZ083-085-099-010300-
SOUTHEAST TENNESSEE

CITY           SKY/WX    TMP DP  RH WIND       PRES   REMARKS
CHATTANOOGA    MOCLDY    69  65  86 N6        29.94R
$$

SKY/WX REPORTED AS FAIR MEANS FEW OR NO CLOUDS BELOW
12 THOUSAND FEET.





USA.gov is the U.S. government's official web portal to all federal, state and local government web resources and services.